FW8253 Weather Reports


time (UTC)temp
F
wind
direction
speed
knots
gust
knots
rain 1hr
in
rain 24hr
in
rain mn
in
humidity
%
barometer
mb
20260503203535 77 129 0.0 0.0 0.00 0.00 0.00 39 1018.2
20260503203032 76 250 0.0 0.0 0.00 0.00 0.00 41 1018.2
20260503202530 75 237 0.0 0.0 0.00 0.00 0.00 39 1018.5
20260503202027 75 248 0.0 0.0 0.00 0.00 0.00 43 1018.4
20260503201525 75 233 0.0 0.0 0.00 0.00 0.00 43 1018.8
20260503201022 75 209 0.0 0.0 0.00 0.00 0.00 41 1018.7
20260503200518 75 63 0.0 0.0 0.00 0.00 0.00 40 1018.9
20260503200015 74 246 0.0 0.0 0.00 0.00 0.00 43 1018.8
20260503195513 75 85 0.0 0.0 0.00 0.00 0.00 40 1018.8
20260503195009 73 100 0.0 0.0 0.00 0.00 0.00 42 1019.0
20260503194507 75 98 0.0 0.0 0.00 0.00 0.00 42 1019.0
20260503194006 75 253 0.0 0.0 0.00 0.00 0.00 45 1019.3
20260503193503 76 7 0.0 0.0 0.00 0.00 0.00 41 1019.4
20260503192958 75 179 0.0 0.0 0.00 0.00 0.00 44 1019.3
20260503192455 74 10 0.0 0.0 0.00 0.00 0.00 44 1019.6
20260503191950 74 230 0.0 0.0 0.00 0.00 0.00 44 1019.5
20260503191448 75 96 0.0 0.0 0.00 0.00 0.00 38 1019.6
20260503190944 75 242 0.0 0.0 0.00 0.00 0.00 48 1019.8
20260503190442 74 311 0.0 0.0 0.00 0.00 0.00 43 1019.8
20260503185938 74 219 0.0 0.0 0.00 0.00 0.00 41 1020.0
20260503185435 74 239 0.0 0.0 0.00 0.00 0.00 47 1020.0
20260503184934 73 233 0.0 0.0 0.00 0.00 0.00 44 1020.2
20260503184431 74 230 0.0 0.0 0.00 0.00 0.00 48 1020.4
20260503183927 74 230 0.0 0.0 0.00 0.00 0.00 44 1020.1
20260503183424 73 273 0.0 0.0 0.00 0.00 0.00 46 1020.4
20260503182921 72 218 0.0 0.0 0.00 0.00 0.00 44 1020.4
20260503182420 72 217 0.0 0.0 0.00 0.00 0.00 53 1020.8
20260503181917 73 238 0.0 0.0 0.00 0.00 0.00 42 1020.6
20260503181414 73 190 0.0 0.0 0.00 0.00 0.00 50 1020.9
20260503180910 72 194 0.0 0.0 0.00 0.00 0.00 46 1020.8
20260503180408 72 235 0.0 0.0 0.00 0.00 0.00 52 1020.8
20260503175904 71 140 0.0 0.0 0.00 0.00 0.00 43 1020.8
20260503175403 72 182 0.0 0.0 0.00 0.00 0.00 45 1021.0
20260503174858 72 217 0.0 0.0 0.00 0.00 0.00 55 1021.0
20260503174356 70 189 0.0 0.0 0.00 0.00 0.00 52 1021.1
20260503173851 69 146 0.0 0.0 0.00 0.00 0.00 52 1020.9
20260503173348 71 201 0.0 0.0 0.00 0.00 0.00 48 1021.2
20260503172844 73 248 0.0 0.0 0.00 0.00 0.00 48 1021.1
20260503172342 70 196 0.0 0.0 0.00 0.00 0.00 47 1021.2
20260503171838 70 244 0.0 0.0 0.00 0.00 0.00 44 1021.3
20260503171335 70 208 0.0 0.0 0.00 0.00 0.00 45 1021.3
20260503170832 71 205 0.0 0.0 0.00 0.00 0.00 42 1021.2
20260503170328 71 213 0.0 0.0 0.00 0.00 0.00 42 1021.2
20260503150721 66 237 0.0 0.0 0.00 0.00 0.00 64 1022.3
20260503150217 65 218 0.0 0.0 0.00 0.00 0.00 74 1022.3
20260503140141 59 221 0.0 0.0 0.00 0.00 0.00 91 1022.4
20260503131111 53 241 0.0 0.0 0.00 0.00 0.00 99 1022.1
20260503130609 53 180 0.0 0.0 0.00 0.00 0.00 99 1021.9
20260503130106 53 166 0.0 0.0 0.00 0.00 0.00 99 1022.0
20260503110458 48 227 0.0 0.0 0.00 0.00 0.00 99 1020.9
20260503090350 46 235 0.0 0.0 0.00 0.00 0.00 99 1019.7
20260503081312 47 235 0.0 0.0 0.00 0.00 0.00 99 1018.7
20260503080808 47 235 0.0 0.0 0.00 0.00 0.00 99 1019.0
20260503080305 47 235 0.0 0.0 0.00 0.00 0.00 99 1018.9
20260503072741 48 232 0.0 0.0 0.00 0.00 0.00 99 1018.7
20260503072238 48 232 0.0 0.0 0.00 0.00 0.00 99 1018.9
20260503071735 49 232 0.0 0.0 0.00 0.00 0.00 99 1018.7
20260503071231 49 232 0.0 0.0 0.00 0.00 0.00 99 1018.8
20260503070728 49 232 0.0 0.0 0.00 0.00 0.00 99 1018.6
20260503070226 49 232 0.0 0.0 0.00 0.00 0.00 99 1018.6
20260503060151 50 232 0.0 0.0 0.00 0.00 0.00 99 1018.4
20260503054638 51 232 0.0 0.0 0.00 0.00 0.00 99 1018.3
20260503054135 51 232 0.0 0.0 0.00 0.00 0.00 99 1018.4
20260503053633 51 232 0.0 0.0 0.00 0.00 0.00 99 1018.6
20260503053132 51 232 0.0 0.0 0.00 0.00 0.00 99 1018.5
20260503052628 51 232 0.0 0.0 0.00 0.00 0.00 99 1018.4
20260503052124 51 232 0.0 0.0 0.00 0.00 0.00 99 1018.3
20260503051619 51 232 0.0 0.0 0.00 0.00 0.00 99 1018.5
20260503051118 51 232 0.0 0.0 0.00 0.00 0.00 99 1018.1
20260503050614 51 233 0.0 0.0 0.00 0.00 0.00 99 1018.3
20260503050110 51 233 0.0 0.0 0.00 0.00 0.00 99 1018.1
20260503045608 52 233 0.0 0.0 0.00 0.00 0.00 99 1018.3
20260503045105 52 235 0.0 0.0 0.00 0.00 0.00 99 1018.2
20260503044601 52 235 0.0 0.0 0.00 0.00 0.00 99 1018.3
20260503044059 52 230 0.0 0.0 0.00 0.00 0.00 99 1018.2
20260503043555 53 230 0.0 0.0 0.00 0.00 0.00 99 1018.1
20260503043052 53 230 0.0 0.0 0.00 0.00 0.00 99 1018.0
20260503042549 53 231 0.0 0.0 0.00 0.00 0.00 99 1018.0
20260503042045 53 231 0.0 0.0 0.00 0.00 0.00 99 1018.1
20260503041542 53 231 0.0 0.0 0.00 0.00 0.00 99 1018.0
20260503041040 53 231 0.0 0.0 0.00 0.00 0.00 99 1018.0
20260503040537 53 230 0.0 0.0 0.00 0.00 0.00 99 1017.8
20260503040034 53 230 0.0 0.0 0.00 0.00 0.00 99 1017.9
20260503035531 53 231 0.0 0.0 0.00 0.02 0.02 99 1017.9
20260503035029 53 231 0.0 0.0 0.00 0.02 0.02 99 1017.9
20260503034526 53 231 0.0 0.0 0.00 0.02 0.02 99 1018.1
20260503034023 53 232 0.0 0.0 0.00 0.02 0.02 99 1018.1
20260503033520 54 231 0.0 0.0 0.00 0.02 0.02 99 1018.1
20260503033018 54 231 0.0 0.0 0.00 0.02 0.02 99 1017.9
20260503032516 54 231 0.0 0.0 0.00 0.02 0.02 99 1018.2
20260503032014 54 242 0.0 0.0 0.00 0.02 0.02 99 1017.9
20260503031511 54 247 0.0 0.0 0.00 0.02 0.02 99 1018.0
20260503031008 54 284 0.0 0.0 0.00 0.02 0.02 99 1017.9
20260503030504 54 266 0.0 0.0 0.00 0.02 0.02 99 1017.8
20260503030001 53 232 0.0 0.0 0.00 0.02 0.02 99 1017.5
20260503025458 53 232 0.0 0.0 0.00 0.02 0.02 99 1017.5
20260503024956 53 231 0.0 0.0 0.00 0.02 0.02 99 1017.3
20260503024451 53 231 0.0 0.0 0.00 0.02 0.02 99 1017.2
20260503023949 53 232 0.0 0.0 0.00 0.02 0.02 99 1017.2
20260503023446 53 232 0.0 0.0 0.00 0.02 0.02 99 1017.1
20260503022943 53 206 0.0 0.0 0.00 0.02 0.02 99 1017.1
20260503022438 53 206 0.0 0.0 0.00 0.02 0.02 99 1017.0
20260503021934 53 204 0.0 0.0 0.00 0.02 0.02 99 1016.8
20260503021430 53 204 0.0 0.0 0.00 0.02 0.02 99 1016.9
20260503020928 53 204 0.0 0.0 0.00 0.02 0.02 99 1016.5
20260503020425 53 204 0.0 0.0 0.00 0.02 0.02 99 1016.6
20260503015922 53 209 0.0 0.0 0.00 0.02 0.02 99 1016.7
20260503015419 53 209 0.0 0.0 0.00 0.02 0.02 99 1016.7
20260503014914 53 209 0.0 0.0 0.00 0.02 0.02 99 1016.4
20260503014412 53 207 0.0 0.0 0.00 0.02 0.02 99 1016.2
20260503013910 53 208 0.0 0.0 0.00 0.02 0.02 99 1016.3
20260503013406 53 208 0.0 0.0 0.00 0.02 0.02 99 1016.1
20260503012903 53 207 0.0 0.0 0.00 0.02 0.02 99 1016.0
20260503012401 53 207 0.0 0.0 0.00 0.02 0.02 99 1015.8
20260503011857 53 207 0.0 0.0 0.00 0.02 0.02 99 1015.7
20260503011355 53 207 0.0 0.0 0.00 0.02 0.02 99 1015.6
20260503010851 53 207 0.0 0.0 0.00 0.02 0.02 99 1015.6
20260503010348 53 207 0.0 0.0 0.00 0.02 0.02 99 1015.5
20260503005845 53 207 0.0 0.0 0.00 0.02 0.02 99 1015.5
20260503005343 53 204 0.0 0.0 0.00 0.02 0.02 99 1015.3
20260503004838 53 206 0.0 0.0 0.00 0.02 0.02 99 1015.6
20260503004336 53 232 0.0 0.0 0.00 0.02 0.02 99 1015.3
20260503003834 53 232 0.0 0.0 0.00 0.02 0.02 99 1015.0
20260503003330 53 232 0.0 0.0 0.00 0.02 0.02 99 1015.3
20260503002827 53 232 0.0 0.0 0.00 0.02 0.02 99 1015.1
20260503002324 53 232 0.0 0.0 0.00 0.02 0.02 99 1015.2
20260503001821 54 232 0.0 0.0 0.00 0.02 0.02 99 1014.9
20260503001317 54 232 0.0 0.0 0.00 0.02 0.02 99 1014.8
20260503000815 54 232 0.0 0.0 0.00 0.02 0.02 99 1014.7
20260503000312 55 232 0.0 0.0 0.00 0.02 0.02 99 1014.6
20260502235809 55 232 0.0 0.0 0.00 0.02 0.02 99 1014.6
20260502235306 55 233 0.0 0.0 0.00 0.02 0.02 99 1014.4
20260502234803 55 233 0.0 0.0 0.00 0.02 0.02 98 1014.4
20260502234300 55 233 0.0 0.0 0.00 0.02 0.02 98 1014.4
20260502233756 56 233 0.0 0.0 0.00 0.02 0.02 98 1014.4
20260502233253 56 233 0.0 0.0 0.00 0.02 0.02 98 1014.6
20260502232749 56 234 0.0 0.0 0.00 0.02 0.02 98 1014.2
20260502232246 57 233 0.0 0.0 0.00 0.02 0.02 97 1014.3
20260502231742 57 233 0.0 0.0 0.00 0.02 0.02 97 1014.2
20260502231240 57 236 0.0 0.0 0.00 0.02 0.02 97 1014.0
20260502230739 58 236 0.0 0.0 0.00 0.02 0.02 96 1014.0
20260502230237 58 236 0.0 0.0 0.00 0.02 0.02 95 1014.2
20260502225733 58 205 0.0 0.0 0.00 0.02 0.02 93 1014.0
20260502225230 58 231 0.0 0.0 0.00 0.02 0.02 94 1014.1
20260502224726 58 244 0.0 0.0 0.00 0.02 0.02 94 1014.2
20260502224223 58 246 0.0 0.0 0.00 0.02 0.02 95 1014.2
20260502223720 58 264 0.0 0.0 0.00 0.02 0.02 92 1014.1
20260502223218 58 242 0.0 0.0 0.00 0.02 0.02 93 1013.8
20260502222716 58 189 0.0 0.0 0.00 0.02 0.02 93 1014.3
20260502222212 58 253 0.0 0.0 0.00 0.02 0.02 94 1014.1
20260502221708 59 235 0.0 0.0 0.00 0.02 0.02 94 1013.9
20260502221205 58 213 0.0 0.0 0.00 0.02 0.02 93 1013.7
20260502220701 58 71 0.0 0.0 0.00 0.02 0.02 91 1013.9
20260502220157 59 246 0.0 0.0 0.00 0.02 0.02 92 1013.7
20260502215654 58 213 0.0 0.0 0.00 0.02 0.02 92 1013.7
20260502215151 58 184 0.0 0.0 0.00 0.02 0.02 91 1013.5
20260502214649 59 33 0.0 0.0 0.00 0.02 0.02 91 1013.5
20260502214146 59 231 0.0 0.0 0.00 0.02 0.02 94 1013.6
20260502213643 58 243 0.0 0.0 0.00 0.02 0.02 93 1013.6
20260502213140 59 296 0.0 0.0 0.00 0.02 0.02 93 1013.7
20260502212639 58 267 0.0 0.0 0.00 0.02 0.02 96 1013.6
20260502212137 57 214 0.0 0.0 0.00 0.02 0.02 97 1013.8
20260502211632 57 214 0.0 0.0 0.00 0.02 0.02 98 1013.8
20260502211129 57 160 0.0 0.0 0.00 0.02 0.02 98 1013.8
20260502210627 57 241 0.0 0.0 0.00 0.02 0.02 98 1013.7
20260502210124 56 266 0.0 0.0 0.00 0.02 0.02 98 1013.5
20260502205620 56 223 0.0 0.0 0.00 0.02 0.02 99 1013.6
20260502205117 56 226 0.0 0.0 0.00 0.02 0.02 99 1013.4
20260502204614 56 195 0.0 0.0 0.00 0.02 0.02 99 1013.4
20260502204112 55 110 0.0 0.0 0.00 0.02 0.02 99 1013.3